Regional Weather Roundup
Issued by NWS

Home | Current Version | Previous Version | Text Only | Print | Product List | Glossary On
Versions: 1 2 3 4 5 6 7 8 9 10 11 12 13 14 15 16 17 18 19 20 21 22 23 24 25 26 27 28 29 30 31 32 33 34 35 36 37 38 39 40 41 42 43 44 45 46 47 48 49 50
000
ASUS43 KMKX 301200
RWRWI

WISCONSIN REGIONAL WEATHER ROUNDUP
NATIONAL WEATHER SERVICE MILWAUKEE/SULLIVAN WI
700 AM CDT MON MAY 30 2016

NOTE: "FAIR" INDICATES FEW OR NO CLOUDS BELOW 12,000 FEET WITH NO
SIGNIFICANT WEATHER AND/OR OBSTRUCTIONS TO VISIBILITY.

WIZ001-002-006>008-014>016-023>028-301300-
NORTHWEST WISCONSIN

CITY           SKY/WX    TMP DP  RH WIND       PRES   REMARKS
SUPERIOR ARPT  SUNNY     52  51  96 SW6       29.98S
ASHLAND        SUNNY     58  51  78 SW6       29.98R
6HR MIN TEMP:  50; 6HR MAX TEMP:  58;

HAYWARD        MOSUNNY   50  48  93 CALM      30.01S
6HR MIN TEMP:  44; 6HR MAX TEMP:  52;

SIREN          SUNNY     50  48  93 CALM      30.00F
CUMBERLAND     SUNNY     52  50  93 CALM      30.01S FOG
RICE LAKE      SUNNY     55  53  94 CALM      30.03S
CHETEK         SUNNY     53  53 100 CALM      30.02S FOG
LADYSMITH      SUNNY     52  51  97 CALM      30.03S
EAU CLAIRE     NOT AVBL
MENOMONIE      CLOUDY    55  54  95 CALM      30.01S FOG
NEW RICHMOND   CLOUDY    55  55 100 CALM      30.01S FOG
OSCEOLA        MOSUNNY   53  53 100 CALM      30.03S
$$

WIZ003>005-009-010-017-018-301300-
NORTH CENTRAL WISCONSIN

CITY           SKY/WX    TMP DP  RH WIND       PRES   REMARKS
MANITOWISH WTR NOT AVBL
ARBOR VITAE    SUNNY     57  55  94 CALM      30.00R
WOODRUFF       SUNNY     57  55  94 CALM      30.00R
RHINELANDER    SUNNY     57  53  86 W8        30.01R
6HR MIN TEMP:  47; 6HR MAX TEMP:  57;

EAGLE RIVER      N/A     54  54 100 W3        29.99R
LAND O LAKES   SUNNY     55  55  99 W3        29.99R
PHILLIPS       SUNNY     51  51 100 CALM      30.01R
TOMAHAWK       SUNNY     49  48  97 CALM      30.01S FOG
MEDFORD        SUNNY     55  55 100 CALM      30.02R
MERRILL        SUNNY     49  49 100 CALM      30.01R
$$

WIZ029-030-035-036-043>047-301300-
CENTRAL WISCONSIN

CITY           SKY/WX    TMP DP  RH WIND       PRES   REMARKS
WAUSAU         SUNNY     61  56  83 NW5       30.00R
6HR MIN TEMP:  56; 6HR MAX TEMP:  63;

MOSINEE        SUNNY     57  57 100 W6        30.02R
MARSHFIELD     SUNNY     60  56  86 NW6       30.02R
6HR MIN TEMP:  55; 6HR MAX TEMP:  63;

STEVENS POINT  SUNNY     54  54 100 CALM      30.02R
WAUPACA        SUNNY     60  60 100 CALM      30.00R
WAUTOMA        SUNNY    N/A N/A N/A SW3       30.02R
WISC RAPIDS    SUNNY     61  56  83 NW5       30.03R
6HR MIN TEMP:  54; 6HR MAX TEMP:  63;

CAMP DOUGLAS   NOT AVBL
$$

WIZ011>013-019>022-031-037>040-048>050-301300-
NORTHEAST WISCONSIN

CITY           SKY/WX    TMP DP  RH WIND       PRES   REMARKS
ANTIGO         SUNNY     54  54 100 CALM      30.01R
SHAWANO        SUNNY     59  56  90 W5        29.99R
OCONTO         SUNNY    N/A N/A N/A W5        29.97R
STURGEON BAY   NOT AVBL
GREEN BAY      SUNNY     62  58  86 CALM      29.99R
6HR MIN TEMP:  57; 6HR MAX TEMP:  64;

MANITOWOC      NOT AVBL
APPLETON       MOSUNNY   61  59  94 W7        29.99R
CLINTONVILLE   SUNNY     59  55  88 CALM      29.99R
OSHKOSH        SUNNY     64  58  80 W7        30.00R
6HR MIN TEMP:  60; 6HR MAX TEMP:  65;

$$

WIZ032>034-041-042-053>061-301300-
SOUTHWEST WISCONSIN

CITY           SKY/WX    TMP DP  RH WIND       PRES   REMARKS
LA CROSSE      CLOUDY    60  59  96 S6        30.02S FOG
6HR MIN TEMP:  56; 6HR MAX TEMP:  63;

SPARTA         SUNNY     52  51  97 CALM      30.03S
VIROQUA        CLOUDY    60  58  94 CALM      30.04R
BOSCOBEL       FOG       59  58  96 CALM      30.04R VSB<1/4
6HR MIN TEMP:  55; 6HR MAX TEMP:  59;

PRAIRIE DU CHI CLOUDY    58  56  92 CALM      30.04R
PLATTEVILLE    SUNNY     62  60  93 CALM      30.03R
$$

WIZ056-057-062-063-064-067-068-301300-
SOUTH CENTRAL WISCONSIN

CITY           SKY/WX    TMP DP  RH WIND       PRES   REMARKS
REEDSBURG      SUNNY     56  56 100 CALM      30.02S
BARABOO/DELLS  SUNNY     59  57  92 CALM      30.03R
LONE ROCK      FOG       56  56 100 W6        30.03S VSB 1/4
MINERAL POINT  SUNNY     63  59  88 CALM      30.03S
MADISON        MOSUNNY   61  60  97 CALM      30.01S
6HR MIN TEMP:  56; 6HR MAX TEMP:  64;

MIDDLETON      SUNNY     60  60 100 CALM      30.02S
WATERTOWN      SUNNY     59  59 100 CALM      30.01S
MONROE         SUNNY     64  55  72 W8        30.02S
JANESVILLE     MOSUNNY   64  63  94 CALM      30.02R
$$

WIZ051-052-058>065-066-070>072-301300-
SOUTHEAST WISCONSIN

CITY           SKY/WX    TMP DP  RH WIND       PRES   REMARKS
MILWAUKEE      MOSUNNY   67  58  72 W7        30.01R
6HR MIN TEMP:  64; 6HR MAX TEMP:  69;

WAUKESHA       SUNNY     61  59  94 CALM      30.03R
MILWAUKEE/TIMM SUNNY     63  55  77 W5        30.02R
RACINE         SUNNY     66  58  75 W6        30.03R
6HR MIN TEMP:  62; 6HR MAX TEMP:  69;

BURLINGTON     SUNNY     58  57  97 CALM      30.02S
KENOSHA        SUNNY     64  59  83 W3        30.02R
6HR MIN TEMP:  57; 6HR MAX TEMP:  66;

FOND DU LAC    SUNNY     63  59  87 SW3       30.01R
6HR MIN TEMP:  57; 6HR MAX TEMP:  63;

SHEBOYGAN      SUNNY     63  59  87 W6        30.00R
6HR MIN TEMP:  55; 6HR MAX TEMP:  63;

WEST BEND      SUNNY     59  59 100 W3        30.02R
JUNEAU         SUNNY     58  57  96 CALM      30.03R
$$

LSZ147-162-301300-
LAKE SUPERIOR

STATION/POSITION TIME  TEMP    WIND        PRES    WAVE
                       AIR SEA DIR/SP/G            HT/PER
                 (UTC) (F)     (DEG/KT/KT) (MB)    (FT/S)
W MID LAKE BUOY  1050   44 38  250/ 14/ 16 1012.7R   1/ 3
DEVILS ISLAND    1100   52     230/ 17/ 18 1014.0R
SAXON HARBOR     1100   57     210/  7/ 11 1013.9R
$$

LMZ867-665-643>646-301300-
LAKE MICHIGAN

STATION/POSITION TIME  TEMP    WIND        PRES    WAVE
                       AIR SEA DIR/SP/G            HT/PER
                 (UTC) (F)     (DEG/KT/KT) (MB)    (FT/S)
CHAMBERS ISLAND  1100   60     200/  5/  8 1014.6R
N MID LAKE BUOY  1050   51 48  220/  8/  8 1013.6R   1/ 4
NORTHPORT PIER   1100   61     250/  4/  7 1013.9S
KEWAUNEE LAKESHO 1100   59     300/  5/  6 1014.3R
SHEBOYGAN LAKESH 1100   63     260/  9/ 10 1015.4R
PORT WASHINGTON  1100   65     290/  5/  8 1016.3R
S MID LAKE BUOY  1050   56 51  240/  6/  8 1015.7R   0
KENOSHA   LAKESH 1100   65     250/  8/ 10 1015.9R
$$

TC  - TEMPERATURE IN CELSIUS
VSB - VISIBILITY IN STATUTE MILES
WCI - WIND CHILL INDEX
HX  - HEAT INDEX




USA.gov is the U.S. government's official web portal to all federal, state and local government web resources and services.